START_TIME,STEP,MOV.,H8,t_acc.,H43,t_acc.,M25,t_acc.,H9,t_acc.
1986-01-24 03:00:07.020 ,3,0,0.,12.0,0.,12.0,0.,12.0,0.,12.0
1986-01-24 03:00:19.020 ,3,0,0.,12.0,0.,12.0,0.,12.0,0.,12.0
1986-01-24 03:00:31.020 ,3,0,0.,12.0,0.,12.0,0.,12.0,0.,12.0
1986-01-24 03:00:43.020 ,3,0,0.,12.0,0.,12.0,0.,12.0,0.,12.0
1986-01-24 03:00:55.020 ,2,0,0.,12.0,0.,12.0,0.,12.0,0.,12.0
1986-01-24 03:01:07.020 ,2,0,0.,12.0,0.,12.0,0.,12.0,0.,12.0
1986-01-24 03:01:19.020 ,2,0,0.,12.0,0.,12.0,0.,12.0,0.,12.0
1986-01-24 03:01:31.020 ,2,0,0.,12.0,0.,12.0,0.,12.0,0.,12.0
1986-01-24 03:01:43.020 ,1,0,0.,12.0,0.,12.0,0.,12.0,0.,12.0
1986-01-24 03:01:55.020 ,1,0,0.,12.0,0.,12.0,0.,12.0,0.,12.0
1986-01-24 03:02:07.020 ,1,0,0.,12.0,0.,12.0,0.,12.0,0.,12.0
1986-01-24 03:02:19.020 ,1,0,0.,12.0,0.,12.0,0.,12.0,0.,12.0
1986-01-24 03:02:31.020 ,0,0,0.,12.0,0.,12.0,0.,12.0,0.,12.0
1986-01-24 03:02:43.020 ,0,0,0.,12.0,0.,12.0,0.,12.0,0.,12.0
1986-01-24 03:02:55.020 ,0,0,0.,12.0,0.,12.0,0.,12.0,0.,12.0
1986-01-24 03:03:07.020 ,0,0,0.,12.0,0.,12.0,0.,12.0,0.,12.0
1986-01-24 03:03:19.020 ,0,0,0.,12.0,0.,12.0,0.,12.0,0.,12.0
1986-01-24 03:03:31.020 ,0,0,0.,12.0,0.,12.0,0.,12.0,0.,12.0
1986-01-24 03:03:43.020 ,0,0,0.,12.0,0.,12.0,0.,12.0,0.,12.0
1986-01-24 03:03:55.020 ,0,0,0.,12.0,0.,12.0,0.,12.0,0.,12.0
1986-01-24 03:04:07.020 ,1,0,0.,12.0,0.,12.0,0.,12.0,0.,12.0
1986-01-24 03:04:19.020 ,1,0,0.,12.0,0.,12.0,0.,12.0,0.,12.0
1986-01-24 03:04:31.020 ,1,0,0.,12.0,0.,12.0,0.,12.0,0.,12.0
1986-01-24 03:04:43.020 ,1,0,0.,12.0,0.,12.0,0.,12.0,0.,12.0
1986-01-24 03:04:55.020 ,2,0,0.,12.0,0.,12.0,0.,12.0,0.,12.0
1986-01-24 03:05:07.020 ,2,0,0.,12.0,0.,12.0,0.,12.0,0.,12.0
1986-01-24 03:05:19.020 ,2,0,0.,12.0,0.,12.0,0.,12.0,0.,12.0
1986-01-24 03:05:31.020 ,2,0,0.,12.0,0.,12.0,0.,12.0,0.,12.0
1986-01-24 03:05:43.020 ,3,0,0.,12.0,0.,12.0,0.,12.0,0.,12.0
1986-01-24 03:05:55.020 ,3,0,0.,12.0,0.,12.0,0.,12.0,0.,12.0
1986-01-24 03:06:07.020 ,3,0,0.,12.0,0.,12.0,0.,12.0,0.,12.0
1986-01-24 03:06:19.020 ,3,0,0.,12.0,0.,12.0,0.,12.0,0.,12.0
1986-01-24 03:06:31.020 ,4,0,0.,12.0,0.,12.0,0.,12.0,0.,12.0
1986-01-24 03:06:43.020 ,4,0,0.,12.0,0.,12.0,0.,12.0,0.,12.0
1986-01-24 03:06:55.020 ,4,0,0.,12.0,0.,12.0,0.,12.0,0.,12.0
1986-01-24 03:07:07.020 ,4,0,0.,12.0,0.,12.0,0.,12.0,0.,12.0
1986-01-24 03:07:19.020 ,5,0,0.,12.0,0.,12.0,0.,12.0,0.,12.0
1986-01-24 03:07:31.020 ,5,0,0.,12.0,0.,12.0,0.,12.0,0.,12.0
1986-01-24 03:07:43.020 ,5,0,0.,12.0,0.,12.0,0.,12.0,0.,12.0
1986-01-24 03:07:55.020 ,5,0,0.,12.0,0.,12.0,0.,12.0,0.,12.0
1986-01-24 03:08:07.020 ,6,0,0.,12.0,0.,12.0,0.,12.0,0.,12.0
1986-01-24 03:08:19.020 ,6,0,0.,12.0,0.,12.0,0.,12.0,0.,12.0
1986-01-24 03:08:31.020 ,6,0,0.,12.0,0.,12.0,0.,12.0,0.,12.0
1986-01-24 03:08:43.020 ,6,0,0.,12.0,0.,12.0,0.,12.0,0.,12.0
1986-01-24 03:08:55.020 ,7,0,0.,12.0,0.,12.0,0.,12.0,0.,12.0
1986-01-24 03:09:07.020 ,7,0,0.,12.0,0.,12.0,0.,12.0,0.,12.0
1986-01-24 03:09:19.020 ,7,0,0.,12.0,0.,12.0,0.,12.0,0.,12.0
1986-01-24 03:09:31.020 ,7,0,0.,12.0,0.,12.0,0.,12.0,0.,12.0
1986-01-24 03:09:43.020 ,7,0,0.,12.0,0.,12.0,0.,12.0,0.,12.0
1986-01-24 03:09:55.020 ,7,0,0.,12.0,0.,12.0,0.,12.0,0.,12.0
1986-01-24 03:10:07.020 ,7,0,0.,12.0,0.,12.0,0.,12.0,0.,12.0
1986-01-24 03:10:19.020 ,7,0,0.,12.0,0.,12.0,0.,12.0,0.,12.0
1986-01-24 03:10:31.020 ,6,0,0.,12.0,0.,12.0,0.,12.0,0.,12.0
1986-01-24 03:10:43.020 ,6,0,0.,12.0,0.,12.0,0.,12.0,0.,12.0
1986-01-24 03:10:55.020 ,6,0,0.,12.0,0.,12.0,0.,12.0,0.,12.0
1986-01-24 03:11:07.020 ,6,0,0.,12.0,0.,12.0,0.,12.0,0.,12.0
1986-01-24 03:11:43.020 ,5,0,0.,12.0,0.,12.0,0.,12.0,0.,12.0
1986-01-24 03:11:55.020 ,5,0,0.,12.0,0.,12.0,0.,12.0,0.,12.0
1986-01-24 03:12:07.020 ,4,0,0.,12.0,0.,12.0,0.,12.0,0.,12.0
1986-01-24 03:12:19.020 ,4,0,0.,12.0,0.,12.0,0.,12.0,0.,12.0
1986-01-24 03:12:31.020 ,4,0,0.,12.0,0.,12.0,0.,12.0,0.,12.0
1986-01-24 03:12:43.020 ,4,0,0.,12.0,0.,12.0,0.,12.0,0.,12.0
1986-01-24 03:12:55.020 ,3,0,0.,12.0,0.,12.0,0.,12.0,0.,12.0
1986-01-24 03:13:07.020 ,3,0,0.,12.0,0.,12.0,0.,12.0,0.,12.0
1986-01-24 03:13:19.020 ,3,0,0.,12.0,0.,12.0,0.,12.0,0.,12.0
1986-01-24 03:13:31.020 ,3,0,0.,12.0,0.,12.0,0.,12.0,0.,12.0
1986-01-24 03:13:43.020 ,2,0,0.,12.0,0.,12.0,0.,12.0,0.,12.0
1986-01-24 03:13:55.020 ,2,0,0.,12.0,0.,12.0,0.,12.0,0.,12.0
1986-01-24 03:14:07.020 ,2,0,0.,12.0,0.,12.0,0.,12.0,0.,12.0
1986-01-24 03:14:19.020 ,2,0,0.,12.0,0.,12.0,0.,12.0,0.,12.0
1986-01-24 03:14:31.020 ,1,0,0.,12.0,0.,12.0,0.,12.0,0.,12.0
1986-01-24 03:14:43.020 ,1,0,0.,12.0,0.,12.0,0.,12.0,0.,12.0
1986-01-24 03:14:55.020 ,1,0,0.,12.0,0.,12.0,0.,12.0,0.,12.0
1986-01-24 03:15:07.020 ,1,0,0.,12.0,0.,12.0,0.,12.0,0.,12.0
1986-01-24 03:15:19.020 ,0,0,0.,12.0,0.,12.0,0.,12.0,0.,12.0
1986-01-24 03:15:31.020 ,0,0,0.,12.0,0.,12.0,0.,12.0,0.,12.0
1986-01-24 03:15:43.020 ,0,0,0.,12.0,0.,12.0,0.,12.0,0.,12.0
1986-01-24 03:15:55.020 ,0,0,0.,12.0,0.,12.0,0.,12.0,0.,12.0
1986-01-24 03:16:07.020 ,0,0,0.,12.0,0.,12.0,0.,12.0,0.,12.0
1986-01-24 03:16:19.020 ,0,0,0.,12.0,0.,12.0,0.,12.0,0.,12.0
1986-01-24 03:16:31.020 ,0,0,0.,12.0,0.,12.0,0.,12.0,0.,12.0
1986-01-24 03:16:43.020 ,0,0,0.,12.0,0.,12.0,0.,12.0,0.,12.0
1986-01-24 03:16:55.020 ,1,0,0.,12.0,0.,12.0,0.,12.0,0.,12.0
1986-01-24 03:17:07.020 ,1,0,0.,12.0,0.,12.0,0.,12.0,0.,12.0
1986-01-24 03:17:19.020 ,1,0,0.,12.0,0.,12.0,0.,12.0,0.,12.0
1986-01-24 03:17:31.020 ,1,0,0.,12.0,0.,12.0,0.,12.0,0.,12.0
1986-01-24 03:17:43.020 ,2,0,0.,12.0,0.,12.0,0.,12.0,0.,12.0
1986-01-24 03:17:55.020 ,2,0,0.,12.0,0.,12.0,0.,12.0,0.,12.0
1986-01-24 03:18:07.020 ,2,0,0.,12.0,0.,12.0,0.,12.0,0.,12.0
1986-01-24 03:18:19.020 ,2,0,0.,12.0,0.,12.0,0.,12.0,0.,12.0
1986-01-24 03:18:31.020 ,3,0,0.,12.0,0.,12.0,0.,12.0,0.,12.0
1986-01-24 03:18:43.020 ,3,0,0.,12.0,0.,12.0,0.,12.0,0.,12.0
1986-01-24 03:18:55.020 ,3,0,0.,12.0,0.,12.0,0.,12.0,0.,12.0
1986-01-24 03:19:07.020 ,3,0,0.,12.0,0.,12.0,0.,12.0,0.,12.0
1986-01-24 03:19:19.020 ,4,0,0.,12.0,0.,12.0,0.,12.0,0.,12.0
1986-01-24 03:19:31.020 ,4,0,0.,12.0,0.,12.0,0.,12.0,0.,12.0
1986-01-24 03:19:43.020 ,4,0,0.,12.0,0.,12.0,0.,12.0,0.,12.0
1986-01-24 03:19:55.020 ,4,0,0.,12.0,0.,12.0,0.,12.0,0.,12.0
1986-01-24 03:20:07.020 ,5,0,0.,12.0,0.,12.0,0.,12.0,0.,12.0
1986-01-24 03:20:19.020 ,5,0,0.,12.0,0.,12.0,0.,12.0,0.,12.0
1986-01-24 03:20:31.020 ,5,0,0.,12.0,0.,12.0,0.,12.0,0.,12.0
1986-01-24 03:20:43.020 ,5,0,0.,12.0,0.,12.0,0.,12.0,0.,12.0
1986-01-24 03:20:55.020 ,6,0,0.,12.0,0.,12.0,0.,12.0,0.,12.0
1986-01-24 03:21:07.020 ,6,0,0.,12.0,0.,12.0,0.,12.0,0.,12.0
1986-01-24 03:21:19.020 ,6,0,0.,12.0,0.,12.0,0.,12.0,0.,12.0
1986-01-24 03:21:31.020 ,6,0,0.,12.0,0.,12.0,0.,12.0,0.,12.0
1986-01-24 03:21:43.020 ,7,0,0.,12.0,0.,12.0,0.,12.0,0.,12.0
1986-01-24 03:21:55.020 ,7,0,0.,12.0,0.,12.0,0.,12.0,0.,12.0
1986-01-24 03:22:07.020 ,7,0,0.,12.0,0.,12.0,0.,12.0,0.,12.0
1986-01-24 03:22:19.020 ,7,0,0.,12.0,0.,12.0,0.,12.0,0.,12.0
1986-01-24 03:22:31.020 ,7,0,0.,12.0,0.,12.0,0.,12.0,0.,12.0
1986-01-24 03:22:43.020 ,7,0,0.,12.0,0.,12.0,0.,12.0,0.,12.0
1986-01-24 03:22:55.020 ,7,0,0.,12.0,0.,12.0,0.,12.0,0.,12.0
1986-01-24 03:23:07.020 ,7,0,0.,12.0,0.,12.0,0.,12.0,0.,12.0
1986-01-24 03:23:19.020 ,6,0,0.,12.0,0.,12.0,0.,12.0,0.,12.0
1986-01-24 03:23:31.020 ,6,0,0.,12.0,0.,12.0,0.,12.0,0.,12.0
1986-01-24 03:23:43.020 ,6,0,0.,12.0,0.,12.0,0.,12.0,0.,12.0
1986-01-24 03:23:55.020 ,6,0,0.,12.0,0.,12.0,0.,12.0,0.,12.0
1986-01-24 03:24:07.020 ,5,0,0.,12.0,0.,12.0,0.,12.0,0.,12.0
1986-01-24 03:24:19.020 ,5,0,0.,12.0,0.,12.0,0.,12.0,0.,12.0
1986-01-24 03:24:31.020 ,5,0,0.,12.0,0.,12.0,0.,12.0,0.,12.0
1986-01-24 03:24:43.020 ,5,0,0.,12.0,0.,12.0,0.,12.0,0.,12.0
1986-01-24 03:24:55.020 ,4,0,0.,12.0,0.,12.0,0.,12.0,0.,12.0
1986-01-24 03:25:07.020 ,4,0,0.,12.0,0.,12.0,0.,12.0,0.,12.0
1986-01-24 03:25:19.020 ,4,0,0.,12.0,0.,12.0,0.,12.0,0.,12.0
1986-01-24 03:25:31.020 ,4,0,0.,12.0,0.,12.0,0.,12.0,0.,12.0
1986-01-24 03:25:43.020 ,3,0,0.,12.0,0.,12.0,0.,12.0,0.,12.0
1986-01-24 03:25:55.020 ,3,0,0.,12.0,0.,12.0,0.,12.0,0.,12.0
1986-01-24 03:26:07.020 ,3,0,0.,12.0,0.,12.0,0.,12.0,0.,12.0
1986-01-24 03:26:19.020 ,3,0,0.,12.0,0.,12.0,0.,12.0,0.,12.0
1986-01-24 03:26:31.020 ,2,0,0.,12.0,0.,12.0,0.,12.0,0.,12.0
1986-01-24 03:26:43.020 ,2,0,0.,12.0,0.,12.0,0.,12.0,0.,12.0
1986-01-24 03:26:55.020 ,2,0,0.,12.0,0.,12.0,0.,12.0,0.,12.0
1986-01-24 03:27:07.020 ,2,0,0.,12.0,0.,12.0,0.,12.0,0.,12.0
1986-01-24 03:27:19.020 ,1,0,0.,12.0,0.,12.0,0.,12.0,0.,12.0
1986-01-24 03:27:31.020 ,1,0,0.,12.0,0.,12.0,0.,12.0,0.,12.0
1986-01-24 03:27:43.020 ,1,0,0.,12.0,1.,12.0,0.,12.0,0.,12.0
1986-01-24 03:27:55.020 ,1,0,0.,12.0,0.,12.0,0.,12.0,0.,12.0
1986-01-24 03:28:07.020 ,0,0,0.,12.0,0.,12.0,0.,12.0,0.,12.0
1986-01-24 03:28:19.020 ,0,0,0.,12.0,0.,12.0,0.,12.0,0.,12.0
1986-01-24 03:28:31.020 ,0,0,0.,12.0,0.,12.0,0.,12.0,0.,12.0
1986-01-24 03:28:43.020 ,0,0,0.,12.0,0.,12.0,0.,12.0,0.,12.0
1986-01-24 03:28:55.020 ,0,0,0.,12.0,0.,12.0,0.,12.0,0.,12.0
1986-01-24 03:29:07.020 ,0,0,0.,12.0,0.,12.0,0.,12.0,0.,12.0
1986-01-24 03:29:19.020 ,0,0,0.,12.0,0.,12.0,0.,12.0,0.,12.0
1986-01-24 03:29:31.020 ,0,0,0.,12.0,0.,12.0,0.,12.0,0.,12.0
1986-01-24 03:29:43.020 ,1,0,0.,12.0,0.,12.0,0.,12.0,0.,12.0
1986-01-24 03:29:55.020 ,1,0,0.,12.0,0.,12.0,0.,12.0,0.,12.0
1986-01-24 03:30:07.020 ,1,0,0.,12.0,0.,12.0,0.,12.0,0.,12.0
1986-01-24 03:30:19.020 ,1,0,0.,12.0,0.,12.0,0.,12.0,0.,12.0
1986-01-24 03:30:31.020 ,2,0,0.,12.0,0.,12.0,0.,12.0,0.,12.0
1986-01-24 03:30:43.020 ,2,0,0.,12.0,0.,12.0,0.,12.0,0.,12.0
1986-01-24 03:30:55.020 ,2,0,0.,12.0,0.,12.0,0.,12.0,0.,12.0
1986-01-24 03:31:07.020 ,2,0,0.,12.0,0.,12.0,0.,12.0,0.,12.0
1986-01-24 03:31:19.020 ,3,0,0.,12.0,0.,12.0,0.,12.0,0.,12.0
1986-01-24 03:31:31.020 ,3,0,0.,12.0,0.,12.0,0.,12.0,0.,12.0
1986-01-24 03:31:43.020 ,3,0,0.,12.0,0.,12.0,0.,12.0,0.,12.0
1986-01-24 03:31:55.020 ,3,0,0.,12.0,0.,12.0,0.,12.0,0.,12.0
1986-01-24 03:32:07.020 ,4,0,0.,12.0,0.,12.0,0.,12.0,0.,12.0
1986-01-24 03:32:19.020 ,4,0,0.,12.0,0.,12.0,0.,12.0,0.,12.0
1986-01-24 03:32:31.020 ,4,0,0.,12.0,0.,12.0,0.,12.0,0.,12.0
1986-01-24 03:32:43.020 ,4,0,0.,12.0,0.,12.0,0.,12.0,0.,12.0
1986-01-24 03:32:55.020 ,5,0,0.,12.0,0.,12.0,0.,12.0,0.,12.0
1986-01-24 03:33:07.020 ,5,0,0.,12.0,0.,12.0,0.,12.0,0.,12.0
1986-01-24 03:33:19.020 ,5,0,0.,12.0,0.,12.0,0.,12.0,0.,12.0
1986-01-24 03:33:31.020 ,5,0,0.,12.0,0.,12.0,0.,12.0,0.,12.0
1986-01-24 03:33:43.020 ,6,0,0.,12.0,0.,12.0,0.,12.0,0.,12.0
1986-01-24 03:33:55.020 ,6,0,0.,12.0,0.,12.0,0.,12.0,0.,12.0
1986-01-24 03:34:07.020 ,6,0,0.,12.0,0.,12.0,0.,12.0,0.,12.0
1986-01-24 03:34:19.020 ,6,0,0.,12.0,0.,12.0,0.,12.0,0.,12.0
1986-01-24 03:34:31.020 ,7,0,0.,12.0,0.,12.0,0.,12.0,0.,12.0
1986-01-24 03:34:43.020 ,7,0,0.,12.0,0.,12.0,0.,12.0,0.,12.0
1986-01-24 03:34:55.020 ,7,0,0.,12.0,0.,12.0,0.,12.0,0.,12.0
1986-01-24 03:35:07.020 ,7,0,0.,12.0,0.,12.0,0.,12.0,0.,12.0
1986-01-24 03:35:19.020 ,7,0,0.,12.0,0.,12.0,0.,12.0,0.,12.0
1986-01-24 03:35:31.020 ,7,0,0.,12.0,0.,12.0,0.,12.0,0.,12.0
1986-01-24 03:35:43.020 ,7,0,0.,12.0,0.,12.0,0.,12.0,0.,12.0
1986-01-24 03:35:55.020 ,7,0,0.,12.0,0.,12.0,0.,12.0,0.,12.0
1986-01-24 03:36:07.020 ,6,0,0.,12.0,0.,12.0,0.,12.0,0.,12.0
1986-01-24 03:36:19.020 ,6,0,0.,12.0,0.,12.0,0.,12.0,0.,12.0
1986-01-24 03:36:31.020 ,6,0,0.,12.0,0.,12.0,0.,12.0,0.,12.0
1986-01-24 03:36:43.020 ,6,0,0.,12.0,0.,12.0,0.,12.0,0.,12.0
1986-01-24 03:36:55.020 ,5,0,0.,12.0,0.,12.0,0.,12.0,0.,12.0
1986-01-24 03:37:07.020 ,5,0,0.,12.0,0.,12.0,0.,12.0,0.,12.0
1986-01-24 03:37:19.020 ,5,0,0.,12.0,0.,12.0,0.,12.0,0.,12.0
1986-01-24 03:37:31.020 ,5,0,0.,12.0,0.,12.0,0.,12.0,0.,12.0
1986-01-24 03:37:43.020 ,4,0,0.,12.0,0.,12.0,0.,12.0,0.,12.0
1986-01-24 03:37:55.020 ,4,0,0.,12.0,0.,12.0,0.,12.0,0.,12.0
1986-01-24 03:38:07.020 ,4,0,0.,12.0,0.,12.0,0.,12.0,0.,12.0
1986-01-24 03:38:19.020 ,4,0,0.,12.0,0.,12.0,0.,12.0,0.,12.0
1986-01-24 03:38:31.020 ,3,0,0.,12.0,0.,12.0,0.,12.0,0.,12.0
1986-01-24 03:38:43.020 ,3,0,0.,12.0,0.,12.0,0.,12.0,0.,12.0
1986-01-24 03:38:55.020 ,3,0,0.,12.0,0.,12.0,0.,12.0,0.,12.0
1986-01-24 03:39:07.020 ,3,0,0.,12.0,0.,12.0,0.,12.0,0.,12.0
1986-01-24 03:39:19.020 ,2,0,0.,12.0,0.,12.0,0.,12.0,0.,12.0
1986-01-24 03:39:31.020 ,2,0,0.,12.0,0.,12.0,0.,12.0,0.,12.0
1986-01-24 03:39:43.020 ,2,0,0.,12.0,0.,12.0,0.,12.0,0.,12.0
1986-01-24 03:39:55.020 ,2,0,0.,12.0,0.,12.0,0.,12.0,0.,12.0
1986-01-24 03:40:07.020 ,1,0,0.,12.0,0.,12.0,0.,12.0,0.,12.0
1986-01-24 03:40:19.020 ,1,0,0.,12.0,0.,12.0,0.,12.0,0.,12.0
1986-01-24 03:40:31.020 ,1,0,0.,12.0,0.,12.0,0.,12.0,0.,12.0
1986-01-24 03:40:43.020 ,1,0,0.,12.0,0.,12.0,0.,12.0,0.,12.0
1986-01-24 03:40:55.020 ,0,0,0.,12.0,0.,12.0,0.,12.0,0.,12.0
1986-01-24 03:41:07.020 ,0,0,0.,12.0,0.,12.0,0.,12.0,0.,12.0
1986-01-24 03:41:19.020 ,0,0,0.,12.0,0.,12.0,0.,12.0,0.,12.0
1986-01-24 03:41:31.020 ,0,0,0.,12.0,0.,12.0,0.,12.0,0.,12.0
1986-01-24 03:41:43.020 ,0,0,0.,12.0,0.,12.0,0.,12.0,0.,12.0
1986-01-24 03:41:55.020 ,0,0,0.,12.0,0.,12.0,0.,12.0,0.,12.0
1986-01-24 03:42:07.020 ,0,0,0.,12.0,0.,12.0,0.,12.0,0.,12.0
1986-01-24 03:42:19.020 ,0,0,0.,12.0,0.,12.0,0.,12.0,0.,12.0
1986-01-24 03:42:31.020 ,1,0,0.,12.0,0.,12.0,0.,12.0,0.,12.0
1986-01-24 03:42:43.020 ,1,0,0.,12.0,0.,12.0,0.,12.0,0.,12.0
1986-01-24 03:42:55.020 ,1,0,0.,12.0,0.,12.0,0.,12.0,0.,12.0
1986-01-24 03:43:07.020 ,1,0,0.,12.0,0.,12.0,0.,12.0,0.,12.0
1986-01-24 03:43:19.020 ,2,0,0.,12.0,0.,12.0,0.,12.0,0.,12.0
1986-01-24 03:43:31.020 ,2,0,0.,12.0,0.,12.0,0.,12.0,0.,12.0
1986-01-24 03:43:43.020 ,2,0,0.,12.0,0.,12.0,0.,12.0,0.,12.0
1986-01-24 03:43:55.020 ,2,0,0.,12.0,0.,12.0,0.,12.0,0.,12.0
1986-01-24 03:44:07.020 ,3,0,0.,12.0,0.,12.0,0.,12.0,0.,12.0
1986-01-24 03:44:19.020 ,3,0,0.,12.0,0.,12.0,0.,12.0,0.,12.0
1986-01-24 03:44:31.020 ,3,0,0.,12.0,0.,12.0,0.,12.0,0.,12.0
1986-01-24 03:44:43.020 ,3,0,0.,12.0,0.,12.0,0.,12.0,0.,12.0
1986-01-24 03:44:55.020 ,4,0,0.,12.0,0.,12.0,0.,12.0,0.,12.0
1986-01-24 03:45:07.020 ,4,0,0.,12.0,0.,12.0,0.,12.0,0.,12.0
1986-01-24 03:45:19.020 ,4,0,0.,12.0,0.,12.0,0.,12.0,0.,12.0
1986-01-24 03:45:31.020 ,4,0,0.,12.0,0.,12.0,0.,12.0,0.,12.0
1986-01-24 03:45:43.020 ,5,0,0.,12.0,0.,12.0,0.,12.0,0.,12.0
1986-01-24 03:45:55.020 ,5,0,0.,12.0,0.,12.0,0.,12.0,0.,12.0
1986-01-24 03:46:07.020 ,5,0,0.,12.0,0.,12.0,0.,12.0,0.,12.0
1986-01-24 03:46:19.020 ,5,0,0.,12.0,0.,12.0,0.,12.0,0.,12.0
1986-01-24 03:46:31.020 ,6,0,0.,12.0,0.,12.0,0.,12.0,0.,12.0
1986-01-24 03:46:43.020 ,6,0,0.,12.0,0.,12.0,0.,12.0,0.,12.0
1986-01-24 03:46:55.020 ,6,0,0.,12.0,0.,12.0,0.,12.0,0.,12.0
1986-01-24 03:47:07.020 ,6,0,0.,12.0,0.,12.0,0.,12.0,0.,12.0
1986-01-24 03:47:19.020 ,7,0,0.,12.0,0.,12.0,0.,12.0,0.,12.0
1986-01-24 03:47:31.020 ,7,0,0.,12.0,0.,12.0,0.,12.0,0.,12.0
1986-01-24 03:47:43.020 ,7,0,0.,12.0,0.,12.0,0.,12.0,0.,12.0
1986-01-24 03:47:55.020 ,7,0,0.,12.0,0.,12.0,0.,12.0,0.,12.0
1986-01-24 03:48:07.020 ,7,0,0.,12.0,0.,12.0,0.,12.0,0.,12.0
1986-01-24 03:48:19.020 ,7,0,0.,12.0,0.,12.0,0.,12.0,0.,12.0
1986-01-24 03:48:31.020 ,7,0,0.,12.0,0.,12.0,0.,12.0,0.,12.0
1986-01-24 03:48:43.020 ,7,0,0.,12.0,0.,12.0,0.,12.0,0.,12.0
1986-01-24 03:48:55.020 ,6,0,0.,12.0,0.,12.0,0.,12.0,0.,12.0
1986-01-24 03:49:07.020 ,6,0,0.,12.0,0.,12.0,0.,12.0,0.,12.0
1986-01-24 03:49:19.020 ,6,0,0.,12.0,0.,12.0,0.,12.0,0.,12.0
1986-01-24 03:49:31.020 ,6,0,0.,12.0,0.,12.0,0.,12.0,0.,12.0
1986-01-24 03:49:43.020 ,5,0,0.,12.0,0.,12.0,0.,12.0,0.,12.0
1986-01-24 03:49:55.020 ,5,0,0.,12.0,0.,12.0,0.,12.0,0.,12.0
1986-01-24 03:50:07.020 ,5,0,0.,12.0,0.,12.0,0.,12.0,0.,12.0
1986-01-24 03:50:19.020 ,5,0,0.,12.0,0.,12.0,0.,12.0,0.,12.0
1986-01-24 03:50:31.020 ,4,0,0.,12.0,0.,12.0,0.,12.0,0.,12.0
1986-01-24 03:50:43.020 ,4,0,0.,12.0,0.,12.0,0.,12.0,0.,12.0
1986-01-24 03:50:55.020 ,4,0,0.,12.0,0.,12.0,0.,12.0,0.,12.0
1986-01-24 03:51:07.020 ,4,0,0.,12.0,0.,12.0,0.,12.0,0.,12.0
1986-01-24 03:51:19.020 ,3,0,0.,12.0,0.,12.0,0.,12.0,0.,12.0
1986-01-24 03:51:31.020 ,3,0,0.,12.0,0.,12.0,0.,12.0,0.,12.0
1986-01-24 03:51:43.020 ,3,0,0.,12.0,0.,12.0,0.,12.0,0.,12.0
1986-01-24 03:51:55.020 ,3,0,0.,12.0,0.,12.0,0.,12.0,0.,12.0
1986-01-24 03:52:07.020 ,2,0,0.,12.0,0.,12.0,0.,12.0,0.,12.0
1986-01-24 03:52:19.020 ,2,0,0.,12.0,0.,12.0,0.,12.0,0.,12.0
1986-01-24 03:52:55.020 ,1,0,0.,12.0,0.,12.0,0.,12.0,0.,12.0
1986-01-24 03:53:07.020 ,1,0,0.,12.0,0.,12.0,0.,12.0,0.,12.0
1986-01-24 03:53:19.020 ,1,0,0.,12.0,0.,12.0,0.,12.0,0.,12.0
1986-01-24 03:53:31.020 ,1,0,0.,12.0,0.,12.0,0.,12.0,0.,12.0
1986-01-24 03:53:43.020 ,0,0,0.,12.0,0.,12.0,0.,12.0,0.,12.0
1986-01-24 03:53:55.020 ,0,0,0.,12.0,0.,12.0,0.,12.0,0.,12.0
1986-01-24 03:54:07.020 ,0,0,0.,12.0,0.,12.0,0.,12.0,0.,12.0
1986-01-24 03:54:19.020 ,0,0,0.,12.0,0.,12.0,0.,12.0,0.,12.0
1986-01-24 03:54:31.020 ,0,0,0.,12.0,0.,12.0,0.,12.0,0.,12.0
1986-01-24 03:54:43.020 ,0,0,0.,12.0,0.,12.0,0.,12.0,0.,12.0
1986-01-24 03:54:55.020 ,0,0,0.,12.0,1.,12.0,0.,12.0,0.,12.0
1986-01-24 03:55:07.020 ,0,0,0.,12.0,0.,12.0,0.,12.0,0.,12.0
1986-01-24 03:55:19.020 ,1,0,0.,12.0,0.,12.0,0.,12.0,0.,12.0
1986-01-24 03:55:31.020 ,1,0,0.,12.0,0.,12.0,0.,12.0,0.,12.0
1986-01-24 03:55:43.020 ,1,0,0.,12.0,0.,12.0,0.,12.0,0.,12.0
1986-01-24 03:55:55.020 ,1,0,0.,12.0,0.,12.0,0.,12.0,0.,12.0
1986-01-24 03:56:07.020 ,2,0,0.,12.0,0.,12.0,0.,12.0,0.,12.0
1986-01-24 03:56:19.020 ,2,0,0.,12.0,0.,12.0,0.,12.0,0.,12.0
1986-01-24 03:56:31.020 ,2,0,0.,12.0,0.,12.0,0.,12.0,0.,12.0
1986-01-24 03:56:43.020 ,2,0,0.,12.0,0.,12.0,0.,12.0,0.,12.0
1986-01-24 03:56:55.020 ,3,0,0.,12.0,0.,12.0,0.,12.0,0.,12.0
1986-01-24 03:57:07.020 ,3,0,0.,12.0,0.,12.0,0.,12.0,0.,12.0
1986-01-24 03:57:19.020 ,3,0,0.,12.0,0.,12.0,0.,12.0,0.,12.0
1986-01-24 03:57:31.020 ,3,0,0.,12.0,0.,12.0,0.,12.0,0.,12.0
1986-01-24 03:57:43.020 ,4,0,0.,12.0,1.,12.0,0.,12.0,0.,12.0
1986-01-24 03:57:55.020 ,4,0,0.,12.0,0.,12.0,0.,12.0,0.,12.0
1986-01-24 03:58:07.020 ,4,0,0.,12.0,0.,12.0,0.,12.0,0.,12.0
1986-01-24 03:58:19.020 ,4,0,0.,12.0,0.,12.0,0.,12.0,0.,12.0
1986-01-24 03:58:31.020 ,5,0,0.,12.0,0.,12.0,0.,12.0,0.,12.0
1986-01-24 03:58:43.020 ,5,0,0.,12.0,0.,12.0,0.,12.0,0.,12.0
1986-01-24 03:58:55.020 ,5,0,0.,12.0,0.,12.0,0.,12.0,0.,12.0
1986-01-24 03:59:07.020 ,5,0,0.,12.0,0.,12.0,0.,12.0,0.,12.0
1986-01-24 03:59:19.020 ,6,0,0.,12.0,0.,12.0,0.,12.0,0.,12.0
1986-01-24 03:59:31.020 ,6,0,0.,12.0,0.,12.0,0.,12.0,0.,12.0
1986-01-24 03:59:43.020 ,6,0,0.,12.0,1.,12.0,0.,12.0,0.,12.0
1986-01-24 03:59:55.020 ,6,0,0.,12.0,0.,12.0,0.,12.0,0.,12.0
1986-01-24 04:00:07.020 ,7,0,0.,12.0,0.,12.0,0.,12.0,0.,12.0
1986-01-24 04:00:19.020 ,7,0,0.,12.0,0.,12.0,0.,12.0,0.,12.0
1986-01-24 04:00:31.020 ,7,0,0.,12.0,0.,12.0,0.,12.0,0.,12.0
1986-01-24 04:00:43.020 ,7,0,0.,12.0,0.,12.0,0.,12.0,0.,12.0
1986-01-24 04:00:55.020 ,7,0,0.,12.0,0.,12.0,0.,12.0,0.,12.0
1986-01-24 04:01:07.020 ,7,0,0.,12.0,0.,12.0,0.,12.0,0.,12.0
1986-01-24 04:01:19.020 ,7,0,0.,12.0,0.,12.0,0.,12.0,0.,12.0
1986-01-24 04:01:31.020 ,7,0,0.,12.0,0.,12.0,0.,12.0,0.,12.0
1986-01-24 04:01:43.020 ,6,0,0.,12.0,0.,12.0,0.,12.0,0.,12.0
1986-01-24 04:01:55.020 ,6,0,0.,12.0,0.,12.0,0.,12.0,0.,12.0
1986-01-24 04:02:07.020 ,6,0,0.,12.0,0.,12.0,0.,12.0,0.,12.0
1986-01-24 04:02:19.020 ,6,0,0.,12.0,0.,12.0,0.,12.0,0.,12.0
1986-01-24 04:02:31.020 ,5,0,0.,12.0,0.,12.0,0.,12.0,0.,12.0
1986-01-24 04:02:43.020 ,5,0,0.,12.0,0.,12.0,0.,12.0,0.,12.0
1986-01-24 04:02:55.020 ,5,0,0.,12.0,0.,12.0,0.,12.0,0.,12.0
1986-01-24 04:03:07.020 ,5,0,0.,12.0,0.,12.0,0.,12.0,0.,12.0
1986-01-24 04:03:19.020 ,4,0,0.,12.0,0.,12.0,0.,12.0,0.,12.0
1986-01-24 04:03:31.020 ,4,0,0.,12.0,0.,12.0,0.,12.0,0.,12.0
1986-01-24 04:03:43.020 ,4,0,0.,12.0,0.,12.0,0.,12.0,0.,12.0
1986-01-24 04:03:55.020 ,4,0,0.,12.0,0.,12.0,0.,12.0,0.,12.0
1986-01-24 04:04:07.020 ,3,0,0.,12.0,0.,12.0,0.,12.0,0.,12.0
1986-01-24 04:04:19.020 ,3,0,0.,12.0,0.,12.0,0.,12.0,0.,12.0
1986-01-24 04:04:31.020 ,3,0,0.,12.0,0.,12.0,0.,12.0,0.,12.0
1986-01-24 04:04:43.020 ,3,0,0.,12.0,0.,12.0,0.,12.0,0.,12.0
1986-01-24 04:04:55.020 ,2,0,0.,12.0,0.,12.0,0.,12.0,0.,12.0
1986-01-24 04:05:07.020 ,2,0,0.,12.0,0.,12.0,0.,12.0,0.,12.0
1986-01-24 04:05:19.020 ,2,0,0.,12.0,0.,12.0,0.,12.0,0.,12.0
1986-01-24 04:05:31.020 ,2,0,0.,12.0,0.,12.0,0.,12.0,0.,12.0
1986-01-24 04:05:43.020 ,1,0,0.,12.0,0.,12.0,0.,12.0,0.,12.0
1986-01-24 04:05:55.020 ,1,0,0.,12.0,0.,12.0,0.,12.0,0.,12.0
1986-01-24 04:06:07.020 ,1,0,0.,12.0,0.,12.0,0.,12.0,0.,12.0
1986-01-24 04:06:19.020 ,1,0,0.,12.0,0.,12.0,0.,12.0,0.,12.0
1986-01-24 04:06:31.020 ,0,0,0.,12.0,0.,12.0,0.,12.0,0.,12.0
1986-01-24 04:06:43.020 ,0,0,0.,12.0,0.,12.0,0.,12.0,0.,12.0
1986-01-24 04:06:55.020 ,0,0,0.,12.0,0.,12.0,0.,12.0,0.,12.0
1986-01-24 04:07:07.020 ,0,0,0.,12.0,0.,12.0,0.,12.0,0.,12.0
1986-01-24 04:07:19.020 ,0,0,0.,12.0,0.,12.0,0.,12.0,0.,12.0
1986-01-24 04:07:31.020 ,0,0,0.,12.0,0.,12.0,0.,12.0,0.,12.0
1986-01-24 04:07:43.020 ,0,0,0.,12.0,0.,12.0,0.,12.0,0.,12.0
1986-01-24 04:07:55.020 ,0,0,0.,12.0,0.,12.0,0.,12.0,0.,12.0
1986-01-24 04:08:07.020 ,1,0,0.,12.0,0.,12.0,0.,12.0,0.,12.0
1986-01-24 04:08:19.020 ,1,0,0.,12.0,0.,12.0,0.,12.0,0.,12.0
1986-01-24 04:08:31.020 ,1,0,0.,12.0,0.,12.0,0.,12.0,0.,12.0
1986-01-24 04:08:43.020 ,1,0,0.,12.0,0.,12.0,0.,12.0,0.,12.0
1986-01-24 04:08:55.020 ,2,0,0.,12.0,0.,12.0,0.,12.0,0.,12.0
1986-01-24 04:09:07.020 ,2,0,0.,12.0,0.,12.0,0.,12.0,0.,12.0
1986-01-24 04:09:19.020 ,2,0,0.,12.0,0.,12.0,0.,12.0,0.,12.0
1986-01-24 04:09:31.020 ,2,0,0.,12.0,0.,12.0,0.,12.0,0.,12.0
1986-01-24 04:09:43.020 ,3,0,0.,12.0,0.,12.0,0.,12.0,0.,12.0
1986-01-24 04:09:55.020 ,3,0,0.,12.0,0.,12.0,0.,12.0,0.,12.0
1986-01-24 04:10:07.020 ,3,0,0.,12.0,0.,12.0,0.,12.0,0.,12.0
1986-01-24 04:10:19.020 ,3,0,0.,12.0,0.,12.0,0.,12.0,0.,12.0
1986-01-24 04:10:31.020 ,4,0,0.,12.0,0.,12.0,0.,12.0,0.,12.0
1986-01-24 04:10:43.020 ,4,0,0.,12.0,0.,12.0,0.,12.0,0.,12.0
1986-01-24 04:10:55.020 ,4,0,0.,12.0,0.,12.0,0.,12.0,0.,12.0
1986-01-24 04:11:07.020 ,4,0,0.,12.0,0.,12.0,0.,12.0,0.,12.0
1986-01-24 04:11:19.020 ,5,0,0.,12.0,0.,12.0,0.,12.0,0.,12.0
1986-01-24 04:11:31.020 ,5,0,0.,12.0,0.,12.0,0.,12.0,0.,12.0
1986-01-24 04:11:43.020 ,5,0,0.,12.0,0.,12.0,0.,12.0,0.,12.0
1986-01-24 04:11:55.020 ,5,0,0.,12.0,0.,12.0,0.,12.0,0.,12.0
1986-01-24 04:12:07.020 ,6,0,0.,12.0,0.,12.0,0.,12.0,0.,12.0
1986-01-24 04:12:19.020 ,6,0,0.,12.0,0.,12.0,0.,12.0,0.,12.0
1986-01-24 04:12:31.020 ,6,0,0.,12.0,0.,12.0,0.,12.0,0.,12.0
1986-01-24 04:12:43.020 ,6,0,0.,12.0,0.,12.0,0.,12.0,0.,12.0
1986-01-24 04:12:55.020 ,7,0,0.,12.0,0.,12.0,0.,12.0,0.,12.0
1986-01-24 04:13:07.020 ,7,0,0.,12.0,0.,12.0,0.,12.0,0.,12.0
1986-01-24 04:13:19.020 ,7,0,0.,12.0,0.,12.0,0.,12.0,0.,12.0
1986-01-24 04:13:31.020 ,7,0,0.,12.0,0.,12.0,0.,12.0,0.,12.0
1986-01-24 04:13:43.020 ,7,0,0.,12.0,0.,12.0,0.,12.0,0.,12.0
1986-01-24 04:13:55.020 ,7,0,0.,12.0,0.,12.0,0.,12.0,0.,12.0
1986-01-24 04:14:07.020 ,7,0,0.,12.0,0.,12.0,0.,12.0,0.,12.0
1986-01-24 04:14:19.020 ,7,0,0.,12.0,0.,12.0,0.,12.0,0.,12.0
1986-01-24 04:14:31.020 ,6,0,0.,12.0,0.,12.0,0.,12.0,0.,12.0
1986-01-24 04:14:43.020 ,6,0,0.,12.0,0.,12.0,0.,12.0,0.,12.0
1986-01-24 04:14:55.020 ,6,0,0.,12.0,0.,12.0,0.,12.0,0.,12.0
1986-01-24 04:15:07.020 ,6,0,0.,12.0,0.,12.0,0.,12.0,0.,12.0
1986-01-24 04:15:19.020 ,5,0,0.,12.0,0.,12.0,0.,12.0,0.,12.0
1986-01-24 04:15:31.020 ,5,0,0.,12.0,0.,12.0,0.,12.0,0.,12.0
1986-01-24 04:15:43.020 ,5,0,0.,12.0,0.,12.0,0.,12.0,0.,12.0
1986-01-24 04:15:55.020 ,5,0,0.,12.0,0.,12.0,0.,12.0,0.,12.0
1986-01-24 04:16:07.020 ,4,0,0.,12.0,0.,12.0,0.,12.0,0.,12.0
1986-01-24 04:16:19.020 ,4,0,0.,12.0,0.,12.0,0.,12.0,0.,12.0
1986-01-24 04:16:31.020 ,4,0,0.,12.0,0.,12.0,0.,12.0,0.,12.0
1986-01-24 04:16:43.020 ,4,0,0.,12.0,0.,12.0,0.,12.0,0.,12.0
1986-01-24 04:16:55.020 ,3,0,0.,12.0,0.,12.0,0.,12.0,0.,12.0
1986-01-24 04:17:07.020 ,3,0,0.,12.0,0.,12.0,0.,12.0,0.,12.0
1986-01-24 04:17:19.020 ,3,0,0.,12.0,0.,12.0,0.,12.0,0.,12.0
1986-01-24 04:17:31.020 ,3,0,0.,12.0,0.,12.0,0.,12.0,0.,12.0
1986-01-24 04:17:43.020 ,2,0,0.,12.0,0.,12.0,0.,12.0,0.,12.0
1986-01-24 04:17:55.020 ,2,0,0.,12.0,0.,12.0,0.,12.0,0.,12.0